METEOR 2-17 DEB, 35372

Orbit data source: Space-Track

METEOR 2-17 DEB, 35372 is space debris in LEO originally from a launch on Sat, 30 Jan 1988 UTC launched from the Plesetsk Missile And Space Complex (PKMTR). Debris objects in space refer to the collection of defunct objects orbiting the Earth. Examples of debris include non-operational satellites, rocket bodies, and fragments generated from explosions, collisions, or faulty payload assembly.

Loading next visibility...
Identifier
35372, 1988-005AG
Orbit
LEO
Country
Flag of CISCIS
Related business
Manufacturer
Unknown
Mission
Spacecraft
Bus & Motor
Unknown
Mass
Unknown
Launch date (UTC)
1988-01-30 (38 years ago)
Launch vehicle
Unknown
Launch site
Plesetsk Missile And Space Complex (PKMTR)
Object type
Payload
Rocket body
Debris
Shape & HBR
Unknown
Radar Cross Section
Small (<0.1 m²)

Expand to show TLE details & history
Last TLE update: 2 days ago

TLE from 2 days ago
0 METEOR 2-17 DEB
1 35372U 88005AG  25260.40349830  .00001632  00000-0  10882-2 0  9990
2 35372  82.5234 141.3845 0019253 316.1929 169.4274 14.00521942625805
Epoch: 2025-09-17T09:41Z
TLE epoch observation values (Epoch: 2025-09-17T09:41:02.253Z)
Latitude
53.76462°
Longitude
169.28355°
Altitude
914.571 km
Speed
7.393 km/s
True Right ascension
20h 44m 29s
True Declination
53° 36' 14"
Sunlit
Object was in daylight at epoch
Visualization orbit readout
Latitude
Unknown
Longitude
Unknown
Altitude
Unknown
Speed
Unknown
Apparent Right ascension
Unknown
Apparent Declination
Unknown
Sunlit
N/A
Visualization observer readout
Local Sidereal Time
14:43:21
Azimuth
Unknown
Elevation
Unknown
Doppler factor
Unknown
Orbital elements
Apogee altitude
903.11 km
Perigee altitude
875.127 km
Semi-major axis
7,267.256 km
Eccentricity
0.00193
Inclination
82.5234°
RAAN
141.3845°
Arg. of periapsis
316.1929°
True anomaly
169.46778°
Mean anomaly
169.4274°
Eccentric anomaly
169.4476°
Mean motion
3.50338 °/min
Orbital period
102.76 mins
BSTAR
0.0010882
Loading maneuver chart data...
Computing Atmospheric mass density...
Loading historical data...
Loading historical data...
Loading historical data...
Loading historical data...
Loading historical data...
Loading historical data...
Loading historical data...

Documentation

Showing up to 5 results
|